FW0579 Weather Reports


Display with metric or nautical units.
time (UTC)temp
F
wind
direction
speed
MPH
gust
MPH
rain 1hr
in
rain 24hr
in
rain mn
in
humidity
%
barometer
mb
20260906020048 78 290 5.0 12.0 0.00 0.00 0.00 36 1012.2
20260906013041 80 288 3.0 9.0 0.00 0.00 0.00 37 1012.1
20260906011540 81 286 2.0 9.0 0.00 0.00 0.00 38 1012.1
20260906010042 83 239 3.0 8.0 0.00 0.00 0.00 36 1012.2
20260906003140 83 243 2.0 7.0 0.00 0.00 0.00 35 1012.2
20260906001539 84 250 4.0 10.0 0.00 0.00 0.00 34 1011.9
20260906000037 83 240 4.0 9.0 0.00 0.00 0.00 36 1011.9
20260905233036 84 257 1.0 9.0 0.00 0.00 0.00 37 1012.0
20260905231534 84 273 4.0 8.0 0.00 0.00 0.00 35 1012.3
20260905230031 85 253 3.0 11.0 0.00 0.00 0.00 35 1012.4
20260905223035 84 245 3.0 10.0 0.00 0.00 0.00 37 1012.7
20260905221529 84 277 3.0 10.0 0.00 0.00 0.00 37 1012.6
20260905220029 84 248 1.0 9.0 0.00 0.00 0.00 35 1012.9
20260905213029 82 249 5.0 10.0 0.00 0.00 0.00 35 1013.0
20260905211526 81 209 1.0 9.0 0.00 0.00 0.00 36 1013.3
20260905210028 80 297 2.0 5.0 0.00 0.00 0.00 40 1013.3
20260905203017 80 250 7.0 11.0 0.00 0.00 0.00 39 1013.5
20260905201513 79 355 1.0 7.0 0.00 0.00 0.00 46 1013.4
20260905200009 78 257 3.0 8.0 0.00 0.00 0.00 47 1013.6
20260905193008 75 248 1.0 6.0 0.00 0.00 0.00 53 1013.7
20260905191506 74 280 3.0 11.0 0.00 0.00 0.00 52 1014.1
20260905190009 75 244 0.0 5.0 0.00 0.00 0.00 55 1014.2
20260905183100 72 241 4.0 6.0 0.00 0.00 0.00 57 1014.2
20260905181556 72 215 5.0 9.0 0.00 0.00 0.00 58 1014.2
20260905180052 71 248 3.0 7.0 0.00 0.00 0.00 60 1014.0
20260905173045 69 250 3.0 7.0 0.00 0.00 0.00 64 1014.1
20260905171543 68 275 2.0 6.0 0.00 0.00 0.00 65 1014.1
20260905170040 67 271 3.0 6.0 0.00 0.00 0.00 67 1014.1
20260905163035 65 234 2.0 5.0 0.00 0.00 0.00 72 1014.1
20260905161531 64 269 2.0 6.0 0.00 0.00 0.00 75 1014.0
20260905160042 62 269 1.0 6.0 0.00 0.00 0.00 80 1014.0
20260905153018 58 136 0.0 1.0 0.00 0.00 0.00 87 1014.0
20260905151517 56 134 0.0 0.0 0.00 0.00 0.00 88 1014.0
20260905150023 55 134 0.0 1.0 0.00 0.00 0.00 88 1014.0
20260905143019 52 360 1.0 3.0 0.00 0.00 0.00 88 1013.8
20260905141509 51 132 0.0 1.0 0.00 0.00 0.00 87 1013.8
20260905140005 51 202 0.0 0.0 0.00 0.00 0.00 86 1013.8
20260905133003 51 202 0.0 0.0 0.00 0.00 0.00 86 1013.5
20260905131501 51 202 0.0 0.0 0.00 0.00 0.00 85 1013.5
20260905123058 52 360 0.0 0.0 0.00 0.00 0.00 86 1013.5
20260905121552 52 360 0.0 0.0 0.00 0.00 0.00 85 1013.5
20260905120052 52 360 0.0 0.0 0.00 0.00 0.00 85 1013.5
20260905113049 53 360 0.0 0.0 0.00 0.00 0.00 85 1013.6
20260905111552 53 360 0.0 0.0 0.00 0.00 0.00 84 1013.6
20260905110046 53 360 0.0 0.0 0.00 0.00 0.00 84 1013.7
20260905103045 54 360 0.0 0.0 0.00 0.00 0.00 84 1013.9
20260905101544 54 360 0.0 3.0 0.00 0.00 0.00 83 1013.9
20260905100059 54 360 0.0 2.0 0.00 0.00 0.00 82 1014.0
20260905093034 56 360 0.0 0.0 0.00 0.00 0.00 81 1013.9
20260905091535 56 360 0.0 0.0 0.00 0.00 0.00 81 1013.8
20260905090032 56 360 0.0 2.0 0.00 0.00 0.00 80 1014.0
20260905083029 57 360 0.0 0.0 0.00 0.00 0.00 80 1014.1
20260905081527 57 360 0.0 0.0 0.00 0.00 0.00 80 1014.1
20260905080025 57 360 0.0 0.0 0.00 0.00 0.00 79 1014.1
20260905073033 58 360 0.0 3.0 0.00 0.00 0.00 78 1014.0
20260905071524 59 360 0.0 0.0 0.00 0.00 0.00 77 1013.8
20260905070018 59 360 1.0 3.0 0.00 0.00 0.00 77 1013.7
20260905063014 60 360 2.0 4.0 0.00 0.00 0.00 75 1013.6
20260905061512 61 360 3.0 8.0 0.00 0.00 0.00 74 1013.6
20260905060014 61 246 4.0 9.0 0.00 0.00 0.00 74 1013.6
20260905053004 63 233 4.0 9.0 0.00 0.00 0.00 69 1013.5
20260905051502 63 234 4.0 11.0 0.00 0.00 0.00 68 1013.6
20260905050107 64 246 5.0 12.0 0.00 0.00 0.00 68 1013.7
20260905043053 65 360 4.0 7.0 0.00 0.00 0.00 63 1013.6
20260905041553 67 252 4.0 9.0 0.00 0.00 0.00 61 1013.4
20260905040057 67 241 4.0 9.0 0.00 0.00 0.00 60 1013.2
20260905033104 69 252 5.0 8.0 0.00 0.00 0.00 57 1012.8
20260905031608 69 261 5.0 10.0 0.00 0.00 0.00 55 1012.7
20260905030052 70 225 5.0 9.0 0.00 0.00 0.00 52 1012.5
20260905023123 73 226 2.0 4.0 0.00 0.00 0.00 44 1012.2
20260905021550 75 223 3.0 5.0 0.00 0.00 0.00 41 1012.3